Find Starlink 32261

NORAD ID: 61530 Int'l Des: 2024-183 Owner: SPXS Country: US Constellation: starlink operational
LEOCIRCULAR

現在のビュー

3D地球を読み込み中...

About Starlink 32261

Starlink 32261 (NORAD 61530) is a starlink constellation satellite (v2 mini) launched Oct 15, 2024 by SPXS of US. It operates in LEO, CIRCULAR orbit with a mass of 730.00 kg.

Starlink 32261について

説明を読み込み中...

次回通過

Passes for default location (London). Set your location on the main map for personalized predictions.

高度履歴

Loading altitude history...

軌道要素

1 61530U 24183X 26194.50841986 .00000214 00000-0 18663-4 0 9991
2 61530 53.1600 277.4912 0001107 74.1711 285.9412 15.31704019 98924
Epoch: Jul 13, 2026 • Age: 25 hours

現在のステータス

高度 475.2 km
遠地点 / 近地点 N/A
速度 7.63 km/s
衛星直下点 47.30°N, 169.21°W
打ち上げ日 Oct 15, 2024
運用期間 1.7 years
タイプ internet

技術仕様

分類 Payload
質量 730.00 kg
乾燥質量 700.00 kg
総質量 730.00 kg
長さ 0.30 m
直径 4.10 m
スパン 29.00 m
形状 Box + pan
製造者 SPXS
バスタイプ Starlink V2M
フェーズステータス In Orbit
所有者/国 SPXS/US

Most Searched